Back to catalog

COSMOS 2497

AliveMilitaryPO
NORAD 39762·PAYLOAD·🇷🇺 Russia

Launched May 23, 2014 from Plesetsk Cosmodrome

Loading…

Next Passes (next 24 hours)

TLE

FreshSource: Space-Track

Epoch: Sep 14, 2026, 14:10 UTC

1 39762U 14028B   26257.59066069 -.00000147  00000-0 -11292-2 0  9996
2 39762  82.4479  54.4344 0019851 238.4736 121.4404 12.42896816558623

Track COSMOS 2497 in real time with AllMySat

Download on the App Store